Location: Skalnate Pleso
(49.1889°N, 20.2450°E)
Time: 09:31:33
(UTC+01:00)

Cosmos 2061 Rocket - Pass Details

Date: 19 November 2019
Orbit: 965 x 1013 km, 82.9° (Epoch: 10 December)

Event Time Altitude Azimuth Distance (km) Brightness Sun altitude
Rises 05:24:07 0° 203° (SSW) 3,671 6.9 -14.6°
Reaches altitude 10° 05:26:42 10° 208° (SSW) 2,721 6.2 -14.2°
Maximum altitude 05:32:46 53° 285° (WNW) 1,177 4.1 -13.2°
Drops below altitude 10° 05:38:51 10° 2° (N) 2,719 6.2 -12.2°
Sets 05:41:26 0° 7° (N) 3,668 6.9 -11.8°
